[[{"header":{"parameterUnit":"m.s-1","parameterCategory":1,"la1":30.2991,"la2":30.254,"lo1":-89.0895,"lo2":-89.0444,"dy":0.0017,"dx":0.0017,"nx":28,"ny":28,"refTime":"2025-12-23T03:00:00:Z","depth":0,"parameterNumber":2,"parameterNumberName":"U-component_of_WINDS"},"data":[0,0,0,0,0,0,0,0,0,0,0,0,0,0,0,0,0,0,0,0,0,0,0,0,0,0,0,0,0,0,0,0,0,0,0,0,0,0,0,0,0,0,0,0,0,0,0,0,0,0,0,0,0,0,0,0,0,0,0.1147,0.1148,0,0.1251,0.1252,0.1253,0.1338,0.1339,0.134,0.1341,0.1448,0.145,0.1452,0,0,0,0,0,0,0,0,0,0,0,0,0,0.1021,0.1023,0.1147,0.1148,0.1149,0.1251,0.1252,0.1253,0.1338,0.1339,0.134,0.1341,0.1447,0.145,0.1452,0,0,0,0,0,0,0,0,0,0,0,0,0,0.1095,0.1023,0.1146,0.1204,0.121,0.125,0.1252,0.1254,0.1338,0.1339,0.1341,0.1342,0.1446,0.1449,0.1452,0.1444,0,0,0.1462,0.1463,0,0,0,0,0,0,0,0,0.1091,0.11,0.1194,0.12,0.1207,0.1283,0.1247,0.1318,0.1338,0.1289,0.1341,0.1343,0.1392,0.14,0.1416,0.1449,0.1454,0.1462,0.1464,0.1465,0.1466,0,0,0,0,0,0,0,0.1086,0.1096,0.1188,0.1195,0.1203,0.1224,0.1236,0.1261,0.1332,0.1294,0.13,0.1311,0.1396,0.1413,0.1419,0.1456,0.1462,0.1464,0.1466,0.1468,0.1486,0.1485,0,0,0,0,0,0,0.1072,0.1091,0.1185,0.1191,0.1151,0.1225,0.1239,0.1257,0.1332,0.1345,0.131,0.1315,0.1407,0.1416,0.1423,0.1418,0.1465,0.1468,0.147,0.1487,0.1485,0.1484,0,0,0,0,0,0,0.1069,0.1079,0.118,0.1143,0.1157,0.1226,0.1246,0.1259,0.1276,0.1344,0.1357,0.1315,0.1409,0.1419,0.1438,0.1423,0.1469,0.1472,0.1489,0.1487,0.1485,0.1408,0,0,0,0,0,0,0.1065,0.1078,0.1076,0.1142,0.1159,0.1193,0.1245,0.126,0.1281,0.1288,0.1352,0.1364,0.141,0.1433,0.1441,0.1428,0.1474,0.149,0.1488,0.1485,0.1412,0.1403,0.1396,0,0,0,0,0,0.106,0.105,0.1075,0.1086,0.1158,0.1192,0.1202,0.1256,0.1279,0.1278,0.1321,0.1362,0.1423,0.1434,0.1444,0.1432,0.1492,0.1488,0.1486,0.1415,0.1405,0.1396,0,0,0,0,0,0,0.0981,0.106,0.1088,0.11,0.1139,0.1207,0.1207,0.1243,0.1276,0.1282,0.1347,0.1361,0.1372,0.1404,0.1415,0.1427,0.1463,0.1461,0.1406,0.1396,0.1389,0.1381,0.1477,0,0,0,0,0,0.0964,0.0986,0.1054,0.1058,0.1076,0.1137,0.1154,0.1192,0.1235,0.1252,0.1297,0.1337,0.1365,0.1383,0.1413,0.1417,0.1431,0.1413,0.1405,0.1398,0.1396,0.1399,0.1391,0.1474,0.1474,0.1474,0,0,0.0932,0.0977,0.0987,0.1043,0.1078,0.1098,0.1151,0.1171,0.1186,0.1255,0.1276,0.131,0.1359,0.137,0.1377,0.1396,0.1376,0.1394,0.1388,0.139,0.1395,0.1387,0.138,0.1472,0.1473,0.1473,0,0,0.0882,0.0919,0.0925,0.0958,0.101,0.105,0.1052,0.1114,0.1139,0.116,0.1212,0.1231,0.1279,0.1311,0.1334,0.1294,0.1332,0.1302,0.126,0.1262,0.1256,0.125,0.1235,0.1229,0.13,0.13,0.1299,0,0.0834,0.0868,0.0924,0.094,0.0963,0.1025,0.1032,0.1061,0.1119,0.1133,0.1155,0.1214,0.1252,0.1271,0.126,0.1277,0.128,0.1295,0.1252,0.1247,0.1243,0.1229,0.1223,0.1295,0.1296,0.1296,0.1297,0,0.0806,0.0828,0.0827,0.0881,0.0903,0.0914,0.0972,0.0988,0.1023,0.1061,0.1081,0.1128,0.1168,0.1175,0.121,0.1198,0.1209,0.124,0.1277,0.123,0.1218,0.1213,0.129,0.1291,0.1292,0.1293,0,0,0.0711,0.0794,0.0793,0.0818,0.0878,0.0896,0.0909,0.0947,0.0959,0.0997,0.1009,0.1047,0.1076,0.1101,0.114,0.1142,0.1106,0.1173,0.1175,0.1158,0.1094,0.107,0.1063,0.1131,0.113,0.113,0.109,0,0.067,0.0698,0.0749,0.076,0.078,0.0839,0.085,0.0888,0.0924,0.0946,0.0985,0.1011,0.1047,0.1063,0.1067,0.1109,0.1094,0.1113,0.1143,0.1143,0.1128,0.1057,0.1032,0.0992,0.1086,0.1085,0.1084,0,0.0628,0.066,0.0673,0.073,0.0741,0.075,0.0789,0.0809,0.0853,0.0878,0.0905,0.0948,0.0964,0.0998,0.1021,0.1033,0.1048,0.107,0.107,0.1075,0.1111,0.1059,0.0981,0.0974,0.1078,0.1078,0.1079,0,0.0555,0.0603,0.0617,0.0636,0.0703,0.0708,0.0737,0.0781,0.0801,0.0834,0.0847,0.0882,0.0901,0.0926,0.0976,0.0996,0.0993,0.1031,0.1014,0.1013,0.1012,0.1011,0.0933,0.1021,0.1022,0.1022,0.1022,0,0.0505,0.051,0.0585,0.0594,0.0601,0.0658,0.0664,0.0698,0.0737,0.0752,0.0805,0.0818,0.0884,0.0905,0.0944,0.0956,0.0965,0.0985,0.0996,0.098,0.0977,0.0991,0.0995,0.102,0.102,0.1021,0.1021,0,0.0426,0.0477,0.0495,0.0557,0.0572,0.0575,0.0627,0.0637,0.0675,0.0694,0.0702,0.0761,0.0788,0.084,0.0882,0.0908,0.0912,0.093,0.0897,0.0903,0.0883,0.0884,0.0812,0.0804,0.0897,0.0896,0.0895,0,0.0391,0.0396,0.0457,0.0471,0.0497,0.0519,0.0538,0.0595,0.0613,0.0661,0.0665,0.0696,0.0724,0.0764,0.081,0.0842,0.0861,0.0834,0.0867,0.085,0.086,0.0859,0.0859,0.0826,0.0825,0.0824,0.0823,0,0.0322,0.0346,0.0372,0.0406,0.0427,0.0457,0.0489,0.0497,0.0561,0.0578,0.0606,0.0627,0.0669,0.0699,0.0737,0.0766,0.0804,0.0812,0.081,0.0794,0.0774,0.0784,0.0876,0.0814,0.0815,0.0815,0.0816,0.0816,0.0263,0.027,0.0314,0.034,0.037,0.0399,0.0411,0.0449,0.0474,0.0512,0.0543,0.0568,0.061,0.0665,0.0691,0.0711,0.0729,0.0726,0.0725,0.0724,0.0717,0.0771,0.0718,0.0718,0.0719,0.0719,0.0719,0,0.0196,0.0227,0.0251,0.0294,0.0314,0.0348,0.0385,0.04,0.0421,0.0457,0.0482,0.0513,0.0542,0.059,0.0622,0.0628,0.0647,0.0635,0.0635,0.0641,0.0699,0.0697,0.0619,0.0619,0.0619,0.0619,0.0619,0.0619,0.0164,0.0177,0.0206,0.0234,0.0264,0.0289,0.0307,0.0333,0.0361,0.0393,0.0417,0.0448,0.0488,0.0524,0.0551,0.0564,0.0573,0.0555,0.0574,0.0627,0.0637,0.0646,0.0644,0.0557,0.0557,0.0515,0.0514,0.0514]},{"header":{"parameterUnit":"m.s-1","parameterCategory":1,"la1":30.2991,"la2":30.254,"lo1":-89.0895,"lo2":-89.0444,"dy":0.0017,"dx":0.0017,"nx":28,"ny":28,"refTime":"2025-12-23T03:00:00:Z","depth":0,"parameterNumber":3,"parameterNumberName":"V-component_of_WINDS"},"data":[0,0,0,0,0,0,0,0,0,0,0,0,0,0,0,0,0,0,0,0,0,0,0,0,0,0,0,0,0,0,0,0,0,0,0,0,0,0,0,0,0,0,0,0,0,0,0,0,0,0,0,0,0,0,0,0,0,0,1.3252,1.3252,0,1.3228,1.3228,1.3227,1.3247,1.3248,1.3249,1.325,1.3223,1.3222,1.322,0,0,0,0,0,0,0,0,0,0,0,0,0,1.3313,1.3312,1.3252,1.3252,1.3251,1.3228,1.3228,1.3227,1.3247,1.3248,1.3249,1.325,1.3223,1.3222,1.322,0,0,0,0,0,0,0,0,0,0,0,0,0,1.3287,1.3311,1.3252,1.3259,1.3259,1.3228,1.3228,1.3227,1.3247,1.3248,1.3249,1.3251,1.3224,1.3222,1.322,1.3181,0,0,1.3213,1.3212,0,0,0,0,0,0,0,0,1.3289,1.3285,1.3258,1.3258,1.3258,1.3242,1.3239,1.3212,1.3246,1.3251,1.325,1.3251,1.3228,1.3226,1.3218,1.3179,1.3178,1.3213,1.3211,1.321,1.321,0,0,0,0,0,0,0,1.3291,1.3286,1.3242,1.3257,1.3258,1.3262,1.326,1.3234,1.3233,1.3251,1.3252,1.3249,1.3228,1.322,1.3218,1.3178,1.3213,1.3211,1.3209,1.3208,1.3105,1.3103,0,0,0,0,0,0,1.3292,1.3288,1.3243,1.3242,1.3277,1.326,1.3257,1.3246,1.3233,1.3233,1.3248,1.325,1.3224,1.322,1.3217,1.3169,1.321,1.3208,1.3207,1.3106,1.3104,1.3103,0,0,0,0,0,0,1.3293,1.3288,1.3244,1.3265,1.326,1.3257,1.3244,1.3245,1.3237,1.3231,1.3231,1.324,1.3224,1.322,1.3189,1.3169,1.3207,1.3205,1.3108,1.3105,1.3104,1.3074,0,0,0,0,0,0,1.3295,1.3288,1.3274,1.3265,1.3259,1.3217,1.3243,1.3243,1.3233,1.3235,1.3224,1.3223,1.3225,1.3193,1.3187,1.3166,1.3203,1.3109,1.3107,1.3104,1.3077,1.3072,1.3067,0,0,0,0,0,1.3297,1.3266,1.3273,1.3267,1.3241,1.3216,1.3213,1.3216,1.3231,1.3216,1.3213,1.3223,1.3172,1.3189,1.3183,1.3162,1.3111,1.3107,1.3104,1.308,1.3073,1.3067,0,0,0,0,0,0,1.3272,1.3265,1.3272,1.3238,1.3228,1.322,1.3201,1.3209,1.3194,1.3197,1.3202,1.3199,1.3166,1.3161,1.318,1.3123,1.3144,1.3139,1.3127,1.312,1.3115,1.3116,1.3202,0,0,0,0,0,1.3263,1.3245,1.3239,1.3209,1.3204,1.3203,1.3193,1.3197,1.3186,1.3181,1.3176,1.3164,1.3145,1.3133,1.3115,1.3077,1.3074,1.3059,1.3054,1.305,1.3045,1.3023,1.3016,1.3092,1.3092,1.3092,0,0,1.3243,1.3237,1.3225,1.3204,1.3197,1.3176,1.3199,1.3177,1.3162,1.3178,1.3148,1.3144,1.3131,1.3096,1.308,1.3091,1.3024,1.3046,1.3042,1.304,1.3019,1.3012,1.3006,1.309,1.3091,1.3091,0,0,1.3197,1.3191,1.3165,1.3157,1.3146,1.3145,1.3139,1.313,1.3128,1.3098,1.3109,1.3091,1.3059,1.3049,1.304,1.299,1.2999,1.2984,1.2957,1.2935,1.2929,1.2924,1.2904,1.2898,1.298,1.298,1.298,0,1.3174,1.3144,1.315,1.3127,1.3117,1.3132,1.3104,1.3096,1.3079,1.3072,1.3084,1.3044,1.3036,1.2999,1.2986,1.2979,1.2971,1.2985,1.293,1.2924,1.2919,1.2901,1.2894,1.2978,1.2979,1.2979,1.2979,0,1.3116,1.3095,1.3076,1.3059,1.3047,1.3022,1.3024,1.3011,1.3016,1.3014,1.2983,1.2975,1.2956,1.2947,1.2952,1.291,1.2917,1.2929,1.295,1.291,1.2893,1.2886,1.2976,1.2977,1.2977,1.2978,0,0,1.3052,1.304,1.3032,1.3025,1.3013,1.2997,1.2972,1.2954,1.2942,1.293,1.2909,1.2881,1.2893,1.2882,1.2886,1.2868,1.2827,1.2882,1.2882,1.2871,1.2778,1.2768,1.276,1.2833,1.2832,1.2831,1.2779,0,1.3004,1.2962,1.2966,1.2926,1.2906,1.292,1.2898,1.2888,1.2886,1.2869,1.2866,1.2846,1.2863,1.2857,1.2839,1.2835,1.2808,1.2839,1.2812,1.2811,1.2813,1.2751,1.274,1.2691,1.2772,1.2771,1.277,0,1.2942,1.2928,1.2886,1.2877,1.2869,1.2849,1.2832,1.2816,1.2805,1.2804,1.2793,1.28,1.2774,1.2797,1.2761,1.2782,1.2771,1.2767,1.2766,1.2762,1.2787,1.2744,1.2676,1.2668,1.276,1.2761,1.2762,0,1.2898,1.2869,1.2839,1.2833,1.2822,1.2808,1.2802,1.2792,1.2781,1.2766,1.2758,1.2741,1.2731,1.2716,1.2718,1.2735,1.2681,1.2704,1.2678,1.2678,1.2665,1.2666,1.2593,1.2661,1.2661,1.2661,1.2661,0,1.2843,1.2816,1.2819,1.2801,1.2771,1.2777,1.2747,1.2743,1.2734,1.2714,1.2725,1.2706,1.271,1.2691,1.2692,1.2661,1.2657,1.2655,1.2656,1.2653,1.2653,1.2645,1.2648,1.2659,1.266,1.266,1.266,0,1.2788,1.2789,1.2758,1.275,1.2748,1.2726,1.2719,1.2701,1.27,1.2675,1.267,1.2668,1.2646,1.2647,1.2622,1.2622,1.2584,1.2589,1.2588,1.2588,1.2562,1.2564,1.248,1.2469,1.2546,1.2545,1.2544,0,1.2752,1.2731,1.2722,1.271,1.2704,1.2684,1.2673,1.2678,1.2665,1.265,1.2634,1.2614,1.2597,1.2562,1.2557,1.2538,1.2542,1.2514,1.2539,1.2537,1.2539,1.254,1.2537,1.2508,1.2508,1.2507,1.2506,0,1.2687,1.2689,1.2672,1.2655,1.2642,1.2628,1.2617,1.2606,1.2609,1.2594,1.2573,1.256,1.2535,1.2514,1.2495,1.2489,1.2497,1.2499,1.2492,1.2488,1.2488,1.2486,1.2573,1.25,1.2501,1.2501,1.2502,1.2502,1.2639,1.2622,1.2612,1.2593,1.2584,1.2573,1.2556,1.2553,1.2535,1.2515,1.2519,1.2494,1.2483,1.2459,1.2451,1.2431,1.2441,1.2431,1.2428,1.2425,1.2421,1.2492,1.2428,1.2428,1.2428,1.2429,1.2429,0,1.2574,1.2568,1.2551,1.2534,1.2519,1.253,1.2517,1.2503,1.2481,1.247,1.2454,1.2429,1.2408,1.2403,1.2383,1.2368,1.2371,1.2362,1.2362,1.236,1.2415,1.2422,1.236,1.236,1.236,1.236,1.236,1.236,1.2538,1.2508,1.2509,1.2474,1.2469,1.2445,1.2437,1.2426,1.2417,1.2388,1.2372,1.2369,1.2359,1.2339,1.232,1.2319,1.2311,1.23,1.23,1.235,1.2357,1.2363,1.237,1.2298,1.2298,1.2247,1.2247,1.2246]}]]